Torna al catalogo

SL-16 DEB

AttivoLEO
NORAD 24302·DEBRIS·🇷🇺 Russia

Lanciato Sep 4, 1996 da Baikonur Cosmodrome

Loading…

Prossimi Passaggi (prossime 24 ore)

TLE

AggiornatoSource: Space-Track

Epoca: Sep 14, 2026, 07:41 UTC

1 24302U 96051F   26257.32078793 -.00000050  00000-0 -78038-5 0  9991
2 24302  70.9872  11.3303 0205161 120.1722 273.0432 13.71206450501812

Traccia SL-16 DEB in tempo reale con AllMySat

Download on the App Store